User: anonymous   Login
Location: Clinton NY
(43.0598°N, 75.3602°W)
Time: 15:15:09
(UTC-05:00)
Language:

Iridium 42 - Orbit

View from above orbital plane
View from above orbital plane
View from above satellite
View from above satellite

Ground track
Ground track

The orbit data is extracted from the following two-line orbital elements,

1 25077U 97077A   14330.27588161  .00000245  00000-0  80397-4 0   500
2 25077 086.3983 052.3599 0002331 107.6867 252.4583 14.34280290888317
Epoch (UTC): 26 November 2014 06:37:16
Eccentricity: 0.0002331
inclination: 86.3983°
perigee height: 776 km
apogee height: 779 km
right ascension of ascending node: 52.3599°
argument of perigee: 107.6867°
revolutions per day: 14.34280290
mean anomaly at epoch: 252.4583°
orbit number at epoch: 88831

The dashed part of the orbit path shows where the satellite is in the earth's shadow,  

DLR